#timestamp,LO_Frequency,Hit,StdDev 
1660147215.5,286047000.7,N
1660147235.3,286047000.6,N
1660147255.2,286047000.9,N
1660147275.9,286046998.4,N
1660147295.7,286046996.9,N
1660147315.6,286046996.8,N
1660147335.4,286046999.4,N
1660147355.3,286046998.9,N
1660147375.1,286046998.7,N
1660147376.0,286046998.7,N
1660147395.8,286046998.8,N
1660147415.7,286046998.8,N
1660147435.5,286046998.1,N
1660147455.3,286046999.3,N
1660147475.2,286046999.5,N
1660147495.0,286046998.7,N
1660147495.9,286046998.7,N
1660147515.8,286046998.2,N
1660147535.6,286047001.2,N
1660147555.4,286047000.2,N
1660147575.3,286046999.9,N
1660147595.1,286047000.1,N
1660147645.9,286046999.8,E
1660147655.8,286047002.2,N
1660147675.6,286047002.1,P
1660147695.5,286047001.6,P
1660147715.3,286047001.6,Y
1660147735.1,286047000.3,P
1660147755.9,286047000.6,N
1660147775.7,286046998.1,N
1660147795.6,286046998.5,N
1660147815.4,286046998.6,N
1660147835.2,286046998.2,N
1660147855.1,286046998.8,N
1660147856.0,286046998.8,N
1660147875.8,286046998.1,N
1660147895.6,286046998.2,N
1660147915.5,286047000.5,N
1660147935.3,286046998.7,N
1660147955.2,286047001.0,N
1660147975.9,286046998.1,N
1660147995.7,286047000.9,N
1660148015.6,286046998.1,N
1660148035.4,286046998.4,N
1660148055.2,286046999.3,N
1660148075.1,286046998.7,N
1660148076.0,286046998.7,N
1660148095.8,286047000.8,N
1660148115.7,286047002.7,N
1660148135.5,286046999.9,N
1660148155.3,286047000.4,N
1660148175.2,286046998.1,N
1660148195.0,286046999.7,N
1660148195.9,286046999.7,N
1660148215.8,286047000.7,N
1660148235.6,286047001.0,N
1660148255.4,286047001.0,N
1660148275.3,286047002.4,N
1660148295.1,286047002.2,N
1660148315.9,286047001.3,N
1660148335.7,286047004.4,Y
1660148355.5,286047002.9,P
1660148375.4,286047003.5,N
1660148395.2,286047003.6,N
1660148415.0,286047003.8,N
1660148415.9,286047003.8,N
1660148435.8,286047001.4,N
1660148455.6,286047001.3,N
1660148475.5,286047004.0,N
1660148495.3,286047001.8,N
1660148515.1,286047003.8,N
1660148535.9,286047011.9,Y
1660148555.7,286047000.1,P
1660148575.6,286047000.6,N
1660148595.4,286047002.7,N
1660148615.2,286046999.8,N
1660148635.1,286047000.1,N
1660148636.0,286047000.1,N
1660148655.8,286047000.1,N
1660148675.6,286046999.9,N
1660148695.5,286047000.6,N
1660148715.3,286046998.1,N
1660148735.2,286046998.3,N
1660148755.9,286046998.8,N
1660148775.7,286047000.7,N
1660148795.6,286047000.5,N
1660148815.4,286047001.0,N
1660148835.2,286047000.0,N
1660148855.1,286046999.9,N
1660148856.0,286046999.9,N
1660148875.8,286046999.9,N
1660148895.7,286046998.6,N
1660148915.5,286046998.1,N
1660148935.3,286046998.8,N
1660148955.2,286046999.4,N
1660148975.0,286046999.6,N
1660148975.9,286046999.6,N
1660148995.8,286046999.4,N
1660149015.6,286046997.2,N
1660149035.4,286046996.7,N
1660149055.3,286046997.3,N
1660149075.1,286046994.9,Y
1660149095.9,286046996.8,P
1660149115.7,286046999.6,N
1660149135.5,286046997.4,N
1660149155.4,286046997.7,N
1660149175.2,286046997.9,N
1660149195.1,286046997.2,N
1660149196.0,286046997.2,N
1660149215.8,286046994.9,Y
1660149235.6,286046996.7,P
1660149255.5,286046997.2,P
1660149275.3,286046997.3,P
1660149295.2,286046997.4,Y
1660149315.9,286047001.2,P
1660149335.7,286046998.2,N
1660149355.6,286046999.1,N
1660149375.4,286046999.1,N
1660149395.2,286046999.1,N
1660149415.1,286046998.7,N
1660149416.0,286046998.7,N
1660149435.8,286046999.2,N
1660149455.7,286046999.0,N
1660149475.5,286046999.2,N
1660149495.3,286046999.5,N
1660149515.2,286046999.6,N
1660149535.0,286046996.5,Y
1660149535.9,286046996.5,P
1660149555.8,286046999.6,N
1660149575.6,286046999.6,N
1660149595.5,286046998.7,N
1660149615.3,286046999.0,N
1660149635.1,286046998.7,N
1660149655.9,286047001.1,N
1660149675.7,286046998.5,N
1660149695.5,286046998.6,N
1660149715.4,286046998.3,N
1660149735.2,286046998.8,N
1660149755.1,286046996.8,Y
1660149756.0,286046996.8,P
1660149775.8,286046998.3,N
1660149795.7,286046998.8,N
1660149815.5,286046999.3,N
1660149835.3,286046998.9,N
1660149855.2,286046999.4,N
1660149875.9,286046999.2,N
1660149895.7,286046999.2,N
1660149915.6,286046996.6,Y
1660149935.4,286046998.6,P
1660149955.3,286047001.2,P
1660149975.1,286046998.5,N
1660149976.0,286046998.5,N
1660149995.8,286046998.3,N
1660150015.7,286046998.5,N
1660150035.5,286046998.3,N
1660150055.3,286046999.0,N
1660150075.2,286046998.1,N
1660150095.0,286046998.5,N
1660150095.9,286046998.5,N
1660150115.8,286046998.4,N
1660150135.6,286046998.6,N
1660150155.4,286046999.4,N
1660150175.3,286046998.6,N
1660150195.1,286046998.5,N
1660150215.8,286046998.4,N
1660150235.7,286046996.5,Y
1660150255.5,286046998.3,P
1660150275.4,286046998.3,P
1660150295.2,286046998.1,P
1660150315.0,286046998.3,Y
1660150315.9,286046998.3,P
1660150335.8,286047000.1,N
1660150355.6,286046999.7,N
1660150375.5,286047000.4,N
1660150395.3,286047002.7,Y
1660150415.1,286047000.1,P
1660150435.9,286047000.1,N
1660150455.7,286047002.6,P
1660150475.5,286047002.8,N
1660150495.4,286047000.5,N
1660150515.2,286047000.1,N
1660150535.1,286047000.5,N
1660150536.0,286047000.5,N
1660150555.8,286047002.1,N
1660150575.6,286047002.1,N
1660150595.5,286046999.7,N
1660150615.3,286047002.7,N
1660150635.1,286047001.9,N
1660150655.9,286047002.4,N
1660150675.7,286047002.4,N
1660150695.6,286047002.7,N
1660150715.4,286047002.7,N
1660150735.2,286047002.5,N
1660150755.1,286046999.8,N
1660150756.0,286046999.8,N
1660150775.8,286047002.6,N
1660150795.7,286047002.2,N
